Accueil
METAR-TAF:

METAR-TAF

Aéroports :

Saginaw County H.W. Browne Airport

Saginaw, Michigan, États-Unis

latitude: 43-26-00N, longitude: 083-51-45W, altitude: 183 m

Observation

Le bulletin a été fait il y a 14 minutes, à 07:15 UTC
Vent 7 kt de nord-ouest
Température 16°C
Humidité 77%
Pression 1011 hPa
Visibilité: 16.1 km
Nuages épars à une hauteur de 11000 ft

METAR: KHYX 210715Z AUTO 31007KT 10SM SCT110 16/12 A2986 RMK AO2 T01550120

Heure: 03:29 (07:29 UTC)


TAF: absent

Observations et prévisions météorologiques de plus de 4000 aéroports (messages METAR et TAF).

Les stations disponibles sont représentées par des disques jaunes et rouges sur la carte.

Passer la souris dessus pour voir le nom de la station.

Cliquer dessus pour voir les observations et prévisions météorologiques.

Pour changer de carte: cliquez sur les boutons verts avec une croix noire pour zoomer, sur le bouton vert avec un tiret pour effectuer un zoom arrière, ou sur les flèches vertes pour les cartes adjacentes.


METAR-TAF: